Vertical_Velocity
6 7 1 5 5 5 4 5 3 -7 -7 12 -0 -1 -6 -7 -0 -1 6 5 -2 -6 -4 3 -2 2 1 2 1 -1 0 -2 -5 -6 17 4 -4 1 1 2 6 6 6 4
5 1 5 1 0 4 1 3 -8 -9 -3 13 -2 -10 -6 -1 0 1 0 -1 -1 -5 -5 1 1 -1 -2 0 -0 2 2 -2 -2 1 -1 22 8 2 1 1 5 5 7 3
7 -5 -1 3 -2 4 -3 6 -2 15 -6 -6 8 -11 -5 -11 1 -2 -2 -1 -2 2 -1 0 -4 -0 4 -4 -4 -3 1 3 2 1 -2 -2 1 10 3 5 4 1 4 4
3 1 1 -0 0 6 2 1 3 1 8 3 11 -19 -7 -5 5 0 0 -3 -1 -2 -1 2 -1 -3 1 1 -1 -1 -1 1 -0 2 3 3 -1 2 17 2 3 2 6 -2
10 -1 -1 1 5 4 -4 3 5 3 3 14 -14 16 -25 2 2 3 0 -0 -1 1 1 -1 -2 -3 0 -2 -2 -3 1 0 -0 1 2 6 6 0 -3 2 -1 3 13 2
2 -2 2 8 -2 2 1 2 -2 2 7 10 -9 7 -13 2 4 1 -0 -0 -1 -1 1 -0 1 0 0 -3 -2 -2 2 0 -2 -3 -0 -0 2 0 4 2 -1 2 11 10
-2 -0 2 1 1 -1 2 -1 -6 -5 1 -2 -1 0 -7 -5 0 -1 -1 1 -1 -0 -0 -0 -1 -1 -1 0 4 -5 1 -2 -3 -5 -1 -1 3 -2 3 9 12 17 8 12
3 4 3 3 6 10 -1 11 8 4 3 -5 -4 -7 -40 1 0 -1 0 -1 -1 -2 -1 -0 -1 -1 -3 -4 -2 -3 -3 -5 1 -1 -1 -2 8 3 2 2 3 5 8 -0
1 -0 0 1 0 13 -4 2 8 6 -1 14 -5 -20 -7 3 3 -0 0 -1 -1 1 -2 0 1 -2 -6 -2 0 -0 -4 -2 1 -3 1 -4 2 -6 10 4 6 3 6 3
3 -0 0 -0 3 -7 10 1 -4 -3 4 -3 -9 -5 -11 -1 -0 1 -1 -2 -3 1 0 -4 -3 -0 -1 1 -3 -2 -2 12 -7 0 -1 1 -6 -4 9 7 6 8 -1 5
2 8 -7 11 0 2 -3 -3 -2 11 8 7 0 -22 6 2 0 -1 -4 2 -1 0 -0 1 -2 -2 -1 -2 -1 -2 -0 12 -6 1 2 6 7 -6 -10 0 10 8 13 7
4 4 0 -7 -12 3 2 -1 4 12 -18 -2 13 -44 1 1 3 7 -0 -2 -4 5 -2 4 -2 -0 1 0 -2 -3 2 7 -2 -3 4 3 4 6 3 -16 -13 -2 4 7
5 -2 -2 0 13 9 2 -1 1 2 5 -7 19 -32 -5 -5 -7 -11 3 -7 -8 -8 -12 6 -4 -4 1 1 -2 -1 -4 -4 5 1 1 -1 13 2 8 -9 -8 2 2 -5
1 1 6 4 7 10 0 -3 -2 12 9 -8 -7 -14 -18 -11 -2 -11 -8 -4 -2 5 12 -3 -2 -5 -1 0 3 0 -5 -1 4 2 2 2 -4 5 5 10 3 -7 -8 -5
6 2 6 -3 0 3 3 2 -3 8 -5 21 -20 5 -9 -3 3 1 -4 -3 -4 -0 12 -3 2 2 -1 -1 -1 -1 -7 -1 4 4 4 2 -1 -2 7 1 -2 4 2 -10
-1 -5 3 -7 -3 2 1 -2 0 -0 -4 0 2 -12 4 -4 -5 -2 -7 -5 2 -15 -5 0 6 1 -5 4 -3 -1 -3 -1 -0 3 4 3 -1 2 2 2 4 4 -6 -8
4 2 1 -4 1 -1 -4 -3 -0 -2 -0 12 7 -11 -2 -7 -2 -2 -1 7 1 -19 13 -1 -3 7 -2 4 -0 -6 -1 2 3 3 3 3 1 1 -2 -0 2 7 -6 1
1 2 2 -3 -2 1 -11 -1 8 10 -2 -1 -1 -4 1 -1 -3 -0 2 10 -0 7 3 -2 -3 3 -1 -4 4 -2 0 3 6 3 2 3 4 0 1 2 -4 0 -5 -7
2 2 0 2 2 -13 -13 1 7 19 -27 2 4 -5 -4 -3 4 -2 -3 -3 4 2 -3 5 17 2 -6 -3 -1 -2 2 1 4 5 5 7 6 5 1 1 3 -1 1 -5
3 2 9 3 6 1 -1 -5 4 5 -16 1 6 -0 3 -10 4 -9 1 -21 -15 8 -0 0 9 4 -10 1 -0 -2 1 1 2 4 5 5 6 4 2 -1 0 -6 -5 -2
2 2 0 -1 0 -10 -8 4 0 13 -18 -5 8 1 0 7 7 -15 6 1 15 2 -1 9 11 -4 -14 2 2 -2 1 -0 3 4 3 1 2 3 1 1 -3 0 -0 1
3 4 -0 -0 3 -9 8 -30 28 10 -23 6 -5 -3 0 1 -7 -12 -14 9 3 1 1 8 4 -9 -5 1 2 1 -1 2 1 1 2 1 -1 -2 -0 5 -1 2 4 1
0 -1 5 11 -7 -8 -14 14 -1 14 14 -13 10 -4 -1 0 1 0 -9 -9 -5 8 9 0 -4 -4 1 1 4 2 2 2 1 0 -1 -2 -3 -3 0 -0 0 -3 -2 -1
-5 -0 5 8 -12 -4 -1 -14 6 4 4 -3 -1 4 4 7 -12 8 -3 -7 7 14 2 -2 -6 -2 0 2 3 2 3 3 0 -0 -1 -0 1 0 -1 2 -2 -2 0 1
-0 7 -1 -8 -11 -14 -16 -4 4 -14 -7 2 1 8 -1 9 -3 -5 5 -3 21 -1 0 0 -5 1 3 3 3 3 3 3 -6 -2 -1 0 -0 -4 -0 -1 -3 -2 -1 1
-4 2 4 -1 -1 15 -9 -2 3 -1 -5 16 -1 -4 4 -1 -1 2 7 16 3 -0 -1 -2 1 2 5 1 1 1 1 -1 -4 0 -1 1 -1 0 0 -1 -3 1 0 3
Height
1515 1519 1509 1503 1507 1512 1512 1510 1505 1496 1491 1492 1492 1486 1481 1477 1473 1468 1467 1472 1479 1484 1485 1483 1482 1478 1474 1470 1467 1463 1461 1459 1458 1456 1455 1451 1447 1447 1447 1446 1447 1448 1450 1451
1517 1513 1510 1515 1516 1516 1512 1509 1502 1493 1491 1494 1490 1483 1473 1467 1463 1470 1477 1481 1486 1488 1487 1484 1482 1479 1474 1470 1465 1462 1460 1456 1452 1451 1448 1447 1442 1438 1436 1437 1437 1439 1441 1442
1516 1511 1514 1518 1516 1514 1509 1509 1503 1503 1497 1491 1482 1473 1465 1459 1463 1474 1482 1486 1487 1487 1486 1483 1482 1478 1474 1469 1464 1460 1456 1451 1447 1445 1441 1437 1433 1432 1431 1428 1428 1430 1432 1433
1518 1519 1521 1519 1516 1513 1516 1504 1508 1506 1502 1497 1486 1483 1466 1454 1462 1474 1482 1487 1488 1488 1487 1484 1481 1477 1473 1469 1464 1460 1454 1448 1442 1438 1435 1432 1427 1423 1423 1422 1423 1423 1423 1423
1518 1521 1523 1523 1516 1519 1518 1512 1510 1503 1498 1491 1482 1479 1459 1449 1453 1469 1482 1486 1488 1488 1487 1484 1481 1477 1473 1468 1463 1457 1452 1446 1438 1432 1427 1425 1420 1416 1415 1416 1416 1415 1415 1413
1518 1522 1525 1525 1523 1519 1518 1511 1503 1492 1487 1492 1474 1475 1471 1458 1466 1474 1483 1485 1488 1488 1486 1484 1481 1477 1472 1468 1462 1454 1449 1443 1435 1429 1422 1418 1413 1407 1406 1407 1409 1408 1407 1406
1515 1515 1524 1530 1523 1512 1511 1515 1511 1500 1486 1483 1461 1473 1466 1458 1467 1477 1482 1485 1488 1488 1485 1482 1479 1474 1470 1466 1461 1454 1447 1441 1432 1426 1420 1414 1408 1404 1401 1402 1402 1401 1400 1401
1527 1524 1526 1533 1531 1529 1524 1522 1525 1528 1509 1498 1484 1490 1467 1465 1472 1480 1484 1485 1487 1486 1484 1481 1478 1474 1470 1465 1460 1454 1448 1440 1430 1423 1417 1411 1404 1400 1396 1394 1393 1394 1391 1393
1539 1530 1530 1533 1534 1533 1518 1523 1515 1523 1513 1510 1487 1469 1452 1462 1474 1483 1484 1485 1485 1484 1483 1481 1477 1475 1471 1465 1460 1453 1446 1441 1430 1424 1417 1410 1406 1402 1395 1390 1389 1387 1385 1385
1546 1549 1529 1532 1536 1527 1527 1523 1529 1518 1527 1516 1488 1481 1471 1468 1470 1477 1485 1486 1485 1482 1481 1480 1478 1474 1470 1466 1460 1453 1448 1440 1432 1425 1419 1411 1407 1405 1400 1394 1392 1389 1388 1388
1550 1549 1536 1532 1527 1522 1523 1523 1522 1518 1517 1521 1516 1486 1465 1479 1485 1485 1485 1481 1481 1478 1477 1476 1476 1474 1470 1466 1460 1452 1447 1442 1432 1427 1422 1415 1409 1409 1403 1400 1399 1398 1393 1388
1554 1553 1545 1531 1521 1522 1529 1530 1529 1528 1523 1513 1513 1493 1487 1487 1485 1483 1481 1481 1479 1478 1476 1475 1475 1473 1470 1465 1459 1452 1446 1442 1432 1428 1423 1416 1411 1410 1404 1406 1404 1401 1389 1391
1558 1545 1541 1513 1522 1525 1526 1524 1526 1527 1525 1520 1519 1495 1495 1495 1491 1490 1486 1484 1481 1479 1477 1475 1475 1473 1471 1465 1459 1453 1446 1438 1431 1427 1423 1418 1413 1410 1405 1405 1405 1405 1400 1395
1567 1553 1549 1542 1536 1535 1532 1529 1528 1528 1526 1519 1505 1498 1495 1493 1492 1490 1486 1484 1479 1475 1471 1474 1473 1471 1471 1466 1459 1453 1445 1437 1432 1427 1422 1419 1417 1412 1412 1409 1408 1408 1409 1409
1561 1553 1545 1541 1540 1536 1531 1527 1523 1523 1519 1520 1503 1497 1495 1490 1487 1488 1487 1482 1480 1477 1473 1474 1472 1470 1469 1465 1459 1453 1445 1440 1433 1428 1424 1421 1419 1417 1415 1413 1412 1409 1411 1413
1558 1554 1549 1544 1536 1530 1526 1523 1518 1516 1512 1506 1499 1490 1490 1487 1487 1483 1484 1479 1477 1482 1480 1473 1470 1469 1469 1464 1460 1454 1447 1440 1434 1429 1426 1423 1421 1419 1419 1420 1418 1417 1417 1420
1558 1554 1552 1540 1535 1536 1528 1514 1509 1508 1507 1504 1497 1490 1488 1482 1480 1479 1476 1474 1476 1481 1476 1471 1470 1469 1467 1464 1461 1455 1449 1443 1437 1432 1428 1425 1424 1423 1422 1422 1422 1419 1419 1423
1555 1554 1554 1548 1543 1541 1510 1508 1509 1505 1500 1497 1489 1483 1482 1481 1476 1474 1471 1472 1476 1478 1474 1468 1469 1467 1467 1465 1462 1455 1449 1444 1440 1435 1432 1431 1428 1427 1427 1427 1427 1426 1425 1427
1553 1554 1554 1557 1543 1527 1515 1507 1509 1507 1498 1498 1489 1484 1480 1478 1475 1473 1474 1474 1476 1475 1472 1469 1466 1466 1466 1465 1459 1453 1449 1445 1442 1439 1437 1436 1434 1432 1432 1430 1431 1431 1429 1430
1549 1553 1553 1550 1555 1540 1509 1511 1510 1505 1491 1492 1495 1491 1489 1490 1476 1470 1473 1474 1477 1473 1470 1468 1465 1465 1466 1463 1456 1453 1449 1447 1445 1444 1442 1441 1440 1438 1437 1437 1437 1438 1437 1437
1544 1545 1544 1544 1548 1529 1512 1511 1512 1517 1495 1500 1501 1495 1492 1489 1489 1484 1474 1467 1466 1466 1466 1465 1463 1462 1464 1461 1455 1453 1452 1450 1450 1449 1448 1446 1445 1444 1443 1443 1441 1443 1444 1444
1540 1539 1534 1528 1535 1528 1512 1508 1517 1512 1503 1500 1494 1488 1483 1479 1475 1475 1477 1469 1464 1463 1464 1463 1462 1462 1463 1460 1457 1454 1454 1455 1455 1454 1452 1451 1450 1450 1450 1449 1448 1449 1450 1450
1541 1537 1535 1537 1525 1517 1518 1516 1513 1508 1500 1492 1487 1480 1477 1470 1465 1465 1469 1468 1465 1462 1463 1461 1461 1462 1462 1460 1459 1458 1459 1459 1459 1458 1456 1456 1455 1456 1455 1455 1454 1453 1453 1453
1532 1533 1532 1532 1522 1522 1518 1513 1510 1507 1498 1488 1479 1469 1465 1461 1461 1458 1463 1465 1463 1461 1462 1460 1461 1463 1463 1463 1463 1463 1463 1463 1463 1462 1462 1461 1459 1460 1460 1458 1456 1456 1457 1455
1541 1536 1531 1526 1520 1519 1518 1516 1509 1498 1489 1476 1468 1455 1453 1453 1454 1455 1458 1461 1461 1459 1461 1462 1463 1465 1465 1467 1467 1468 1468 1467 1467 1468 1468 1467 1465 1464 1464 1462 1462 1461 1461 1460
1533 1527 1531 1529 1528 1526 1515 1510 1503 1492 1477 1471 1462 1456 1453 1452 1452 1452 1457 1459 1458 1460 1463 1464 1466 1468 1469 1470 1471 1472 1472 1472 1473 1473 1473 1473 1473 1472 1472 1471 1469 1468 1467 1465